Flag for Qatar Weather past 2 weeks in Al-Jamiliyah, Qatar

Now
91 °F

Clear.


Feels Like: 111 °F
Forecast: 91 / 108 °F
Wind: 2 mph from Southwest

Location: Al Udeid

Current Time: Aug 21, 2014 at 2:32:18 AM

Latest Report: Aug 21, 2014 at 1:58 AM


Visibility: N/A

Pressure: 29.60 "Hg

Humidity: 72%

Dew point: 81 °F

Location of Al-JamiliyahLocation

Historic Weather in Al-Jamiliyah — Graph

°F

Al-Jamiliyah temperature yesterday

Maximum temperature yesterday: 112 °F (at 3:58 PM)
Minimum temperature yesterday: 91 °F (at 4:58 AM)
Average temperature yesterday: 100 °F

Past Weeks' High & Low Weather Summary

 TemperatureHumidityPressure
High113 °F (Aug 16, 1:58 PM)94% (Aug 10, 4:04 AM)29.83 "Hg (Aug 10, 4:04 AM)
Low82 °F (Aug 9, 2:58 AM)10% (Aug 6, 3:58 PM)29.40 "Hg (Aug 8, 3:58 PM)
Average97 °F50%29.51 "Hg
* Reported Aug 6 12:58 AM — Aug 21 12:58 AM, Al-Jamiliyah, Weather by CustomWeather, © 2014

Note: Actual official high and low records may vary slightly from our data, if they occured in-between our weather recording intervals... More about our weather records

Advertising

Al-Jamiliyah weather history for previous 24 hours

 ConditionsComfort  
Time TempWeatherWind HumidityBarometerVisibility
12:58 AM
Aug 21
93 °FClear.No wind71%29.61 "HgN/A
11:58 PM
Aug 20
93 °FClear.3 mph73%29.63 "HgN/A
10:58 PM93 °FClear.2 mph73%29.64 "HgN/A
9:58 PM94 °FClear.7 mph70%29.65 "HgN/A
8:58 PM95 °FClear.8 mph67%29.66 "HgN/A
7:58 PM97 °FSunny.12 mph56%29.65 "HgN/A
6:58 PM98 °FSunny.12 mph58%29.64 "HgN/A
5:58 PM102 °FSunny.15 mph47%29.63 "HgN/A
4:58 PM106 °FSunny.18 mph39%29.62 "Hg5 mi
3:58 PM112 °FSunny.5 mph18%29.62 "HgN/A
2:58 PM111 °FSunny.5 mph19%29.63 "HgN/A
1:58 PM110 °FSunny.3 mph20%29.65 "HgN/A
12:58 PM110 °FSunny.5 mph22%29.67 "HgN/A
11:58 AM109 °FSunny.5 mph25%29.69 "HgN/A
10:58 AM107 °FSunny.3 mph30%29.71 "HgN/A
9:58 AM103 °FSunny.8 mph39%29.73 "HgN/A
8:58 AM102 °FSunny.6 mph39%29.74 "HgN/A
7:58 AM99 °FSunny.7 mph47%29.74 "HgN/A
6:58 AM95 °FSunny.6 mph58%29.73 "Hg6 mi
5:58 AM91 °FClear.2 mph67%29.71 "Hg3 mi
4:58 AM91 °FClear.2 mph64%29.70 "HgN/A
3:58 AM93 °FClear.5 mph63%29.69 "HgN/A
2:58 AM92 °FClear.2 mph69%29.67 "HgN/A
Weather by CustomWeather, © 2014

See weather overviewHow to use our weather pages